When you browse on this site, cookies collect data to enhance your experience and personalize the content and advertising you see.
Visit our Privacy Policy to learn more. By continuing to use the site, you agree to this use of cookies and data.
  • In Czech Republic
  • List of Countries
  • For 7 days
  • Water Temperature
  • Satellite Maps
  • Weather Map
  • Weather Widgets
  • user-avatar
    Login

    Hourly Weather Batir

    Today, 16 July, Tuesday

    Time Temperature Precipitation Wind Pressure Humidity
    00:00 +16°C° 0 mm 3 mps 740 mmHg 82%
    01:00 +14°C° 0 mm 3 mps 740 mmHg 84%
    02:00 +14°C° 0 mm 3 mps 740 mmHg 84%
    03:00 +14°C° 0 mm 3 mps 740 mmHg 85%
    04:00 +14°C° 0 mm 3 mps 740 mmHg 85%
    05:00 +13°C° 0 mm 3 mps 740 mmHg 86%
    06:00 +16°C° 0 mm 3 mps 740 mmHg 79%
    07:00 +18°C° 0 mm 4 mps 740 mmHg 72%
    08:00 +20°C° 0 mm 4 mps 741 mmHg 65%
    09:00 +21°C° 0 mm 4 mps 741 mmHg 59%
    10:00 +23°C° 0 mm 5 mps 741 mmHg 53%
    11:00 +25°C° 0 mm 5 mps 741 mmHg 47%
    12:00 +25°C° 0 mm 4 mps 740 mmHg 44%
    13:00 +26°C° 0 mm 4 mps 740 mmHg 42%
    14:00 +26°C° 0 mm 4 mps 740 mmHg 39%
    15:00 +26°C° 0 mm 3 mps 740 mmHg 40%
    16:00 +26°C° 0 mm 3 mps 740 mmHg 40%
    17:00 +26°C° 0 mm 3 mps 740 mmHg 41%
    18:00 +25°C° 0 mm 3 mps 740 mmHg 46%
    19:00 +22°C° 0 mm 3 mps 740 mmHg 51%
    20:00 +21°C° 0 mm 3 mps 740 mmHg 55%
    21:00 +20°C° 0 mm 2 mps 740 mmHg 58%
    22:00 +19°C° 0 mm 2 mps 740 mmHg 60%
    23:00 +18°C° 0 mm 2 mps 740 mmHg 63%

    Tomorrow, 17 July, Wednesday

    Time Temperature Precipitation Wind Pressure Humidity
    00:00 +18°C° 0 mm 2 mps 740 mmHg 66%
    01:00 +18°C° 0 mm 1 mps 740 mmHg 69%
    02:00 +16°C° 0 mm 1 mps 740 mmHg 72%
    03:00 +16°C° 0 mm 1 mps 740 mmHg 73%
    04:00 +16°C° 0 mm 1 mps 740 mmHg 73%
    05:00 +16°C° 0 mm 1 mps 740 mmHg 74%
    06:00 +19°C° 0 mm 1 mps 740 mmHg 68%
    07:00 +20°C° 0 mm 2 mps 740 mmHg 61%
    08:00 +23°C° 0 mm 2 mps 741 mmHg 54%
    09:00 +24°C° 0 mm 2 mps 741 mmHg 51%
    10:00 +25°C° 0 mm 3 mps 740 mmHg 47%
    11:00 +26°C° 0 mm 3 mps 740 mmHg 43%
    12:00 +26°C° 0 mm 3 mps 740 mmHg 42%
    13:00 +27°C° 0 mm 3 mps 740 mmHg 41%
    14:00 +27°C° 0 mm 3 mps 740 mmHg 40%
    15:00 +27°C° 0 mm 3 mps 740 mmHg 41%
    16:00 +27°C° 0 mm 3 mps 739 mmHg 42%
    17:00 +27°C° 0 mm 2 mps 739 mmHg 43%
    18:00 +26°C° 0 mm 2 mps 739 mmHg 46%
    19:00 +25°C° 0 mm 2 mps 739 mmHg 50%
    20:00 +23°C° 0 mm 1 mps 739 mmHg 54%
    21:00 +21°C° 0.1 mm 2 mps 740 mmHg 59%
    22:00 +21°C° 0.1 mm 2 mps 740 mmHg 64%
    23:00 +20°C° 0.1 mm 3 mps 740 mmHg 69%

    Day after tomorrow, 18 July, Thursday

    Time Temperature Precipitation Wind Pressure Humidity
    00:00 +19°C° 0.1 mm 3 mps 740 mmHg 72%
    01:00 +18°C° 0.1 mm 3 mps 740 mmHg 75%
    02:00 +18°C° 0.1 mm 3 mps 740 mmHg 78%
    03:00 +17°C° 0 mm 3 mps 740 mmHg 76%
    04:00 +17°C° 0 mm 3 mps 740 mmHg 75%
    05:00 +16°C° 0 mm 3 mps 741 mmHg 74%
    06:00 +18°C° 0 mm 3 mps 741 mmHg 68%
    07:00 +19°C° 0 mm 3 mps 741 mmHg 62%
    08:00 +21°C° 0 mm 3 mps 741 mmHg 56%
    09:00 +22°C° 0 mm 3 mps 741 mmHg 52%
    10:00 +24°C° 0 mm 3 mps 742 mmHg 48%
    11:00 +25°C° 0 mm 3 mps 742 mmHg 44%
    12:00 +25°C° 0 mm 2 mps 742 mmHg 43%
    13:00 +26°C° 0 mm 2 mps 742 mmHg 42%
    14:00 +26°C° 0 mm 2 mps 742 mmHg 41%
    15:00 +26°C° 0 mm 2 mps 742 mmHg 40%
    16:00 +26°C° 0 mm 2 mps 742 mmHg 40%
    17:00 +26°C° 0 mm 2 mps 742 mmHg 39%
    18:00 +25°C° 0 mm 2 mps 742 mmHg 44%
    19:00 +23°C° 0 mm 2 mps 742 mmHg 48%
    20:00 +21°C° 0 mm 2 mps 742 mmHg 52%
    21:00 +20°C° 0 mm 2 mps 743 mmHg 54%
    22:00 +21°C° 0 mm 1 mps 743 mmHg 55%
    23:00 +21°C° 0 mm 1 mps 743 mmHg 57%

    19 July, Friday

    Time Temperature Precipitation Wind Pressure Humidity
    00:00 +20°C° 0.1 mm 1 mps 743 mmHg 60%
    01:00 +19°C° 0.1 mm 1 mps 743 mmHg 63%
    02:00 +19°C° 0.1 mm 1 mps 743 mmHg 66%
    03:00 +18°C° 0.1 mm 1 mps 743 mmHg 69%
    04:00 +18°C° 0.1 mm 1 mps 744 mmHg 73%
    05:00 +18°C° 0.1 mm 1 mps 744 mmHg 76%
    06:00 +18°C° 0.1 mm 2 mps 744 mmHg 70%
    07:00 +20°C° 0.1 mm 2 mps 744 mmHg 64%
    08:00 +23°C° 0.1 mm 2 mps 744 mmHg 59%
    09:00 +25°C° 0 mm 2 mps 744 mmHg 55%
    10:00 +26°C° 0 mm 2 mps 745 mmHg 52%
    11:00 +27°C° 0 mm 1 mps 745 mmHg 48%
    12:00 +28°C° 0 mm 1 mps 744 mmHg 44%
    13:00 +29°C° 0 mm 1 mps 744 mmHg 40%
    14:00 +30°C° 0 mm 2 mps 744 mmHg 37%
    15:00 +29°C° 0 mm 2 mps 744 mmHg 40%
    16:00 +29°C° 0 mm 2 mps 744 mmHg 42%
    17:00 +28°C° 0 mm 3 mps 744 mmHg 45%
    18:00 +27°C° 0 mm 3 mps 744 mmHg 51%
    19:00 +25°C° 0 mm 3 mps 744 mmHg 57%
    20:00 +24°C° 0 mm 3 mps 744 mmHg 62%
    21:00 +22°C° 0 mm 3 mps 745 mmHg 64%
    22:00 +21°C° 0 mm 2 mps 745 mmHg 66%
    23:00 +21°C° 0 mm 2 mps 745 mmHg 68%

    20 July, Saturday

    Time Temperature Precipitation Wind Pressure Humidity
    00:00 +20°C° 0.1 mm 3 mps 745 mmHg 70%
    01:00 +20°C° 0.1 mm 3 mps 745 mmHg 72%
    02:00 +19°C° 0.1 mm 3 mps 745 mmHg 74%
    03:00 +19°C° 0 mm 3 mps 745 mmHg 74%
    04:00 +19°C° 0 mm 2 mps 745 mmHg 74%
    05:00 +18°C° 0 mm 2 mps 745 mmHg 74%
    06:00 +20°C° 0 mm 3 mps 745 mmHg 66%
    07:00 +22°C° 0 mm 4 mps 745 mmHg 58%
    08:00 +25°C° 0 mm 4 mps 745 mmHg 49%
    09:00 +27°C° 0 mm 4 mps 745 mmHg 44%
    10:00 +29°C° 0 mm 5 mps 746 mmHg 39%
    11:00 +30°C° 0 mm 5 mps 746 mmHg 34%
    12:00 +32°C° 0 mm 5 mps 746 mmHg 33%
    13:00 +33°C° 0 mm 5 mps 745 mmHg 32%
    14:00 +33°C° 0 mm 5 mps 745 mmHg 31%
    15:00 +32°C° 0 mm 4 mps 745 mmHg 34%
    16:00 +30°C° 0 mm 4 mps 745 mmHg 38%
    17:00 +29°C° 0 mm 3 mps 745 mmHg 41%
    18:00 +28°C° 0 mm 3 mps 745 mmHg 45%
    19:00 +26°C° 0 mm 2 mps 745 mmHg 50%
    20:00 +24°C° 0 mm 2 mps 745 mmHg 54%
    21:00 +24°C° 0 mm 2 mps 745 mmHg 57%
    22:00 +22°C° 0 mm 3 mps 745 mmHg 59%
    23:00 +21°C° 0 mm 3 mps 745 mmHg 62%

    21 July, Sunday

    Time Temperature Precipitation Wind Pressure Humidity
    00:00 +21°C° 0 mm 3 mps 745 mmHg 62%
    01:00 +21°C° 0 mm 3 mps 745 mmHg 61%
    02:00 +20°C° 0 mm 3 mps 745 mmHg 61%
    03:00 +20°C° 0 mm 2 mps 745 mmHg 63%
    04:00 +19°C° 0 mm 2 mps 745 mmHg 66%
    05:00 +20°C° 0 mm 1 mps 745 mmHg 68%
    06:00 +22°C° 0 mm 1 mps 745 mmHg 64%
    07:00 +24°C° 0 mm 2 mps 745 mmHg 60%
    08:00 +26°C° 0 mm 2 mps 745 mmHg 55%
    09:00 +27°C° 0 mm 2 mps 746 mmHg 51%
    10:00 +28°C° 0 mm 2 mps 746 mmHg 47%
    11:00 +30°C° 0 mm 2 mps 746 mmHg 42%
    12:00 +31°C° 0 mm 2 mps 746 mmHg 40%
    13:00 +31°C° 0 mm 2 mps 745 mmHg 37%
    14:00 +32°C° 0 mm 2 mps 745 mmHg 35%
    15:00 +32°C° 0 mm 2 mps 745 mmHg 35%
    16:00 +32°C° 0 mm 2 mps 745 mmHg 34%
    17:00 +32°C° 0 mm 2 mps 745 mmHg 34%
    18:00 +30°C° 0 mm 2 mps 745 mmHg 38%
    19:00 +29°C° 0 mm 1 mps 745 mmHg 43%
    20:00 +27°C° 0 mm 1 mps 745 mmHg 47%
    21:00 +26°C° 0 mm 1 mps 745 mmHg 50%
    22:00 +25°C° 0 mm 1 mps 745 mmHg 53%
    23:00 +24°C° 0 mm 1 mps 745 mmHg 55%
    Show more